TIANHUI 2-01A (44207 NORAD) Tracking and Keplerian Element Data

This shows tracking and keplerian element data for the satellite.

Feedback or suggestion? Click here.




ElementValue
Catalog44207
NameTIANHUI 2-01A
Epoch Orbit447
Epoch Day149.50878956
Epoch Year2019
RAAN156.5762
Inclination97.4501
Eccentricity0.0001777
Argument of Perigee78.5156
Mean Anonmoly73.5914
Mean Motion15.1676769
Decay Rate1E-08
L11 44207U 19024A 19149.50878956 .00000001 00000-0 33794-5 0 9997
L22 44207 97.4501 156.5762 0001777 78.5156 73.5914 15.16767690 4473

Live tracking and technical data element details for TIANHUI 2-01A (NORAD 44207). TIANHUI 2-01A can be tracked NOW for your location showing map with azimuth and elevation plus other details from your city location.

Track the satellite on the map from your city or location and see movement details for azimuth, elevation, latitude, longitude, range, height, and movement on the map or in text.







IsCatalogInMostPopularTable: catalog: 44207, numindb: 15
Update: records affected: 1



GetName: 44207 TIANHUI 2-01A

Hit Count: updated at: Tue, 23 Jul 2019 02:36:33 GMT